User: anonymous   Login
Location: Unspecified
(0.0000°N, 0.0000°E)
Time: 11:47:33
(UTC+00:00)
Language:

NUDTSAT - Orbit

View from above orbital plane
View from above orbital plane
View from above satellite
View from above satellite

Ground track
Ground track

The orbit data is extracted from the following two-line orbital elements,

1 42787U 17036Y   18169.15082480  .00001295  00000-0  59254-4 0  9994
2 42787  97.4018 229.1121 0013606  75.7870 284.4877 15.22239930 54518
Epoch (UTC): 18 June 2018 03:37:11
Eccentricity: 0.0013606
inclination: 97.4018°
perigee height: 490 km
apogee height: 508 km
right ascension of ascending node: 229.1121°
argument of perigee: 75.7870°
revolutions per day: 15.22239930
mean anomaly at epoch: 284.4877°
orbit number at epoch: 5451

The dashed part of the orbit path shows where the satellite is in the earth's shadow,  

DLR